User: anonymous   Login
Location: Unspecified
(0.0000°N, 0.0000°E)
Time: 02:58:16
(UTC+00:00)
Language:

STARLINK-3671 - Orbit

View from above orbital plane
View from above orbital plane
View from above satellite
View from above satellite

Ground track
Ground track

The orbit is defined by the following mean orbital elements,

1 51972U          26145.41616051 +.00000000 +00000-0 +11200-5 0 00008
2 51972  53.1566  40.2310 0001375  91.1539 268.9619 15.29354401    01
Epoch (UTC): 25 May 2026 09:59:16
Eccentricity: 0.0001375
inclination: 53.1566°
perigee height: 477 km
apogee height: 479 km
right ascension of ascending node: 40.2310°
argument of perigee: 91.1539°
revolutions per day: 15.29354401
mean anomaly at epoch: 268.9619°

The dashed part of the orbit path shows where the satellite is in the earth's shadow,  

DLR